Location: Terra Rouge Observatory
(46.0000°N, 62.7500°W)
Time: 21:27:48
(UTC-03:00)

NOSS 3-1 (A) - Visible Passes

Search period start: 24 July 2017 00:00
Search period end: 03 August 2017 00:00
Orbit: 829 x 1383 km, 63.4° (Epoch: 11 June)

Date Brightness Start Highest point End Pass type
(mag) Time Alt. Az. Time Alt. Az. Time Alt. Az.
24 Jul 5.4 00:58:37 12° ESE 00:58:40 12° ESE 01:01:02 10° E visible
24 Jul 3.4 02:46:02 42° SSW 02:48:11 75° SE 02:54:45 10° NE visible
24 Jul 4.9 04:34:22 10° W 04:39:46 31° NNW 04:45:50 10° NNE visible
25 Jul 3.7 02:02:34 43° SSE 02:03:37 47° ESE 02:09:47 10° NE visible
25 Jul 4.4 03:50:00 15° WSW 03:54:38 42° NW 04:01:03 10° NNE visible
26 Jul 4.4 01:19:05 29° ESE 01:19:14 29° ESE 01:24:37 10° NE visible
26 Jul 3.8 03:06:30 28° WSW 03:09:39 59° NW 03:16:18 10° NE visible
26 Jul 5.5 04:57:13 10° WNW 05:02:07 23° NNW 05:07:31 10° NNE visible
27 Jul 5.1 00:35:33 17° E 00:35:33 17° E 00:38:57 10° ENE visible
27 Jul 3.4 02:22:58 47° SW 02:24:50 86° NW 02:31:30 10° NE visible
27 Jul 5.2 04:11:33 10° W 04:16:46 27° NNW 04:22:35 10° NNE visible
28 Jul 3.4 01:39:24 57° SSE 01:40:11 63° ESE 01:46:38 10° NE visible
28 Jul 4.7 03:26:49 14° W 03:31:33 35° NNW 03:37:46 10° NNE visible
29 Jul 4.0 00:55:48 39° ESE 00:55:48 39° ESE 01:01:37 10° NE visible
29 Jul 4.2 02:43:13 25° W 02:46:29 47° NW 02:53:00 10° NNE visible
29 Jul 5.7 04:34:30 10° WNW 04:39:14 21° NNW 04:44:26 10° NNE visible
30 Jul 4.7 00:12:09 24° E 00:12:09 24° E 00:16:18 10° ENE visible
30 Jul 3.6 01:59:34 43° WSW 02:01:33 68° NW 02:08:14 10° NE visible
30 Jul 5.4 03:48:48 10° WNW 03:53:50 24° NNW 03:59:23 10° NNE visible
30 Jul 5.3 23:28:28 13° E 23:28:28 13° E 23:30:15 10° ENE visible
31 Jul 3.3 01:15:53 65° SSW 01:16:48 82° SE 01:23:26 10° NE visible
31 Jul 5.1 03:03:17 10° W 03:08:32 30° NNW 03:14:30 10° NNE visible
31 Jul 5.9 04:57:19 10° NW 05:01:54 19° N 05:06:52 10° NE visible
01 Aug 3.5 00:32:08 53° ESE 00:32:14 53° ESE 00:38:31 10° NE visible
01 Aug 4.6 02:19:33 19° W 02:23:22 39° NW 02:29:43 10° NNE visible
01 Aug 5.8 04:11:47 10° NW 04:16:23 20° N 04:21:25 10° NE visible
01 Aug 4.2 23:48:20 32° ESE 23:48:20 32° ESE 23:53:24 10° NE visible
02 Aug 4.0 01:35:45 32° WSW 01:38:21 54° NW 01:44:57 10° NE visible
02 Aug 5.7 03:26:05 10° WNW 03:30:56 22° NNW 03:36:15 10° NNE visible
02 Aug 6.0 05:19:38 10° NW 05:24:36 20° NNE 05:30:00 10° ENE visible
02 Aug 4.8 23:04:28 19° E 23:04:28 19° E 23:07:53 10° ENE visible
